Regional Weather Roundup
Issued by NWS

Home | Current Version | Previous Version | Text Only | Print | Product List | Glossary On
Versions: 1 2 3 4 5 6 7 8 9 10 11 12 13 14 15 16 17 18 19 20 21 22 23 24 25 26 27 28 29 30 31 32 33 34 35 36 37 38 39 40 41 42 43 44 45 46 47 48 49 50
000
ASCA42 TJSJ 030810
RWRPR
PUERTO RICO/U.S. VIRGIN ISLANDS HOURLY WEATHER ROUNDUP
NATIONAL WEATHER SERVICE SAN JUAN PR
400 AM AST SAT DEC 03 2016

PRZ001>002-007>008-010-030900-
PUERTO RICO

CITY           SKY/WX    TMP DP  RH WIND       PRES   REMARKS
SAN JUAN LMM   MOCLDY    79  73  83 CALM      29.93F
AGUADILLA      CLEAR     72  72 100 CALM      29.94F
CEIBA          PTCLDY    75  75 100 CALM      29.95F
$$

VIZ001>002-030900-
U.S. VIRGIN ISLANDS

CITY           SKY/WX    TMP DP  RH WIND       PRES   REMARKS
CHARLOTTE AMA  CLEAR     79  75  89 E6        29.92F
CHRISTIANSTED  CLEAR     75  73  94 NE3       29.93F
$$

HOURLY WEATHER ROUNDUP FOR THE NEWS MEDIA

CITY           SKY/WX    TMP DP  RH WIND       PRES   REMARKS
ORLANDO        PTCLDY    58  47  66 N7        30.16S
NEW YORK       MOCLDY    45  31  58 W17       29.94R
NEWARK         CLOUDY    43  31  62 W9        29.95R
CHICAGO        CLOUDY    33  23  66 W7        30.31S WCI  27
HARTFORD       CLEAR     41  28  60 W14G25    29.76S
BOSTON         PTCLDY    39  31  72 W13       29.77S WCI  31
DALLAS         LGT RAIN  53  44  71 E9        30.14R
PHILADELPHIA   CLOUDY    43  30  60 W16       30.03F
LOS ANGELES    CLEAR     56  13  18 S7        30.09R
WASHINGTON DC  CLOUDY    42  28  57 NW18      30.13R


USA.gov is the U.S. government's official web portal to all federal, state and local government web resources and services.